CW0214 Abrantes PT current weather conditions

sailwx.info

Wind from 290 at 5 knots gusting 13

Air temperature 9.4° C
Dewpoint 7.7° C

Last reported at 2018-Jan-18 23:04 UTC.
Time now 2018-Jan-18 23:55 UTC

Location: N 39°28' W 008°12'.
View on Google Maps.

See reports from other nearby stations

  
Tides and Currents Weather Stations Pressure Air Temp Water Temp Dewpoint Dewpoint Depression Visibility Wind Speed Wind Dir Waves Ship Positions
date/time (UTC)wind fromknots sea level pressurealtimeterstation pressurevisibilityair tempwater tempwave heightnotes
2018-Jan-18 23:04 290 5 gusting 13 9.4
2018-Jan-18 22:59 225 0 gusting 10 9.4
2018-Jan-18 22:54 294 2 gusting 8 9.4
2018-Jan-18 22:44 312 6 gusting 13 9.4
2018-Jan-18 22:39 273 5 gusting 10 9.4
2018-Jan-18 22:34 310 2 gusting 7 9.4
2018-Jan-18 22:24 282 2 gusting 11 9.4
2018-Jan-18 22:19 282 4 gusting 8 9.4
2018-Jan-18 22:09 300 0 gusting 8 9.4
2018-Jan-18 22:04 315 2 gusting 10 9.4
2018-Jan-18 21:59 300 3 gusting 8 9.4
2018-Jan-18 21:54 301 2 gusting 7 9.4
2018-Jan-18 21:44 281 4 gusting 10 9.4
2018-Jan-18 21:34 259 4 gusting 10 9.4
2018-Jan-18 21:29 264 0 gusting 6 10.0
2018-Jan-18 21:24 239 1 gusting 5 10.0
2018-Jan-18 21:19 250 1 gusting 5 10.0
2018-Jan-18 21:09 277 0 gusting 6 10.0
2018-Jan-18 21:04 283 2 gusting 5 10.0
2018-Jan-18 20:59 320 0 gusting 7 10.0
2018-Jan-18 20:54 298 10.0
2018-Jan-18 20:49 280 0 gusting 6 10.6
2018-Jan-18 20:44 295 1 gusting 4 10.6
2018-Jan-18 20:34 257 10.6
2018-Jan-18 20:29 297 2 gusting 5 10.6
2018-Jan-18 20:24 255 1 gusting 4 10.6
2018-Jan-18 20:19 277 10.6
2018-Jan-18 20:14 277 11.1
2018-Jan-18 20:04 310 1 gusting 6 11.1
2018-Jan-18 19:59 318 2 gusting 6 11.1
2018-Jan-18 19:54 284 1 gusting 6 11.1
2018-Jan-18 19:49 288 2 gusting 5 11.1
2018-Jan-18 19:44 287 2 gusting 5 11.1
2018-Jan-18 19:39 320 1 gusting 6 11.7
2018-Jan-18 19:34 287 1 gusting 7 11.7
2018-Jan-18 19:29 299 5 gusting 8 11.7
2018-Jan-18 19:24 336 0 gusting 6 11.7
2018-Jan-18 19:19 286 2 gusting 6 11.7
2018-Jan-18 19:14 297 4 gusting 7 12.2
2018-Jan-18 19:09 250 0 gusting 6 12.2
2018-Jan-18 19:04 304 4 gusting 8 12.2
2018-Jan-18 18:59 292 4 gusting 6 12.2
2018-Jan-18 18:54 299 2 gusting 5 12.2
2018-Jan-18 18:49 291 4 gusting 6 12.8
2018-Jan-18 18:44 268 2 gusting 6 12.8
2018-Jan-18 18:34 270 2 gusting 7 12.8
2018-Jan-18 18:29 276 2 gusting 7 12.8
2018-Jan-18 18:24 306 1 gusting 10 13.3
2018-Jan-18 18:09 303 2 gusting 7 13.3
2018-Jan-18 17:59 238 13.9
2018-Jan-18 17:54 252 0 gusting 5 13.9
2018-Jan-18 17:49 290 13.9
2018-Jan-18 17:39 244 1 gusting 5 14.4
2018-Jan-18 17:34 266 2 gusting 6 15.0
2018-Jan-18 17:29 264 1 gusting 6 15.0
2018-Jan-18 17:24 277 1 gusting 4 15.6
2018-Jan-18 17:19 285 0 gusting 7 15.6
2018-Jan-18 17:14 271 0 gusting 5 16.1
2018-Jan-18 17:04 311 0 gusting 4 16.7
2018-Jan-18 16:59 266 1 gusting 5 16.7
2018-Jan-18 16:54 257 16.7
2018-Jan-18 16:49 256 0 gusting 4 17.2
2018-Jan-18 16:44 257 0 gusting 1 17.2
2018-Jan-18 16:39 256 0 gusting 2 17.2
2018-Jan-18 16:29 257 17.2
2018-Jan-18 16:24 257 0 gusting 2 17.2
2018-Jan-18 16:19 257 17.2
2018-Jan-18 16:14 257 17.2
2018-Jan-18 16:09 257 17.2
2018-Jan-18 16:04 257 17.2
2018-Jan-18 15:59 257 17.2
2018-Jan-18 15:54 257 17.2
2018-Jan-18 15:44 257 17.8
2018-Jan-18 15:39 255 0 gusting 4 17.2
2018-Jan-18 15:34 208 1 gusting 4 17.2
2018-Jan-18 15:29 211 0 gusting 4 17.2
2018-Jan-18 15:24 195 0 gusting 4 17.8
2018-Jan-18 15:19 197 1 gusting 4 17.8
2018-Jan-18 15:14 233 2 gusting 4 17.8
2018-Jan-18 15:09 190 0 gusting 4 17.8
2018-Jan-18 15:04 284 17.8
2018-Jan-18 14:59 282 0 gusting 2 17.8
2018-Jan-18 14:54 282 17.8
2018-Jan-18 14:49 342 17.8
2018-Jan-18 14:44 033 0 gusting 4 17.8
2018-Jan-18 14:39 032 1 gusting 4 17.2
2018-Jan-18 14:34 103 17.2
2018-Jan-18 14:29 103 0 gusting 4 17.2
2018-Jan-18 14:24 103 17.2
2018-Jan-18 14:19 102 1 gusting 5 16.7
2018-Jan-18 14:14 103 0 gusting 4 16.7
2018-Jan-18 14:09 103 1 gusting 4 16.7
2018-Jan-18 13:59 114 2 gusting 5 16.7
2018-Jan-18 13:54 108 0 gusting 5 16.7
2018-Jan-18 13:49 076 16.7
2018-Jan-18 13:44 104 1 gusting 7 16.7
2018-Jan-18 13:39 114 0 gusting 6 16.7
2018-Jan-18 13:34 077 1 gusting 6 16.7
2018-Jan-18 13:24 124 3 gusting 7 16.7
2018-Jan-18 13:19 095 3 gusting 6 16.7
2018-Jan-18 13:14 020 2 gusting 7 16.7
2018-Jan-18 13:09 122 0 gusting 4 16.7
2018-Jan-18 12:59 132 3 gusting 10 16.1
2018-Jan-18 12:54 114 4 gusting 10 16.1
2018-Jan-18 12:49 128 1 gusting 6 15.6
2018-Jan-18 12:44 127 5 gusting 6 15.6
2018-Jan-18 12:39 075 2 gusting 6 15.6
2018-Jan-18 12:34 121 3 gusting 6 15.6
2018-Jan-18 12:29 127 4 gusting 5 15.6
2018-Jan-18 12:24 348 15.6
2018-Jan-18 12:19 348 15.0
2018-Jan-18 12:14 348 15.6
2018-Jan-18 12:04 089 14.4
2018-Jan-18 11:54 079 14.4
2018-Jan-18 11:49 078 13.9
2018-Jan-18 11:44 084 13.3
2018-Jan-18 11:39 083 4 gusting 6 13.3
2018-Jan-18 11:34 080 2 gusting 6 13.3
2018-Jan-18 11:29 111 2 gusting 5 12.8
2018-Jan-18 11:24 098 1 gusting 4 12.8
2018-Jan-18 11:19 103 1 gusting 4 12.2
2018-Jan-18 11:14 108 4 gusting 6 12.2
2018-Jan-18 11:09 109 0 gusting 6 12.8
2018-Jan-18 11:04 083 12.2
2018-Jan-18 10:59 083 11.7
2018-Jan-18 10:49 083 11.1
2018-Jan-18 10:44 083 10.6
2018-Jan-18 10:39 083 10.6
2018-Jan-18 10:29 083 0 gusting 4 10.0
2018-Jan-18 10:24 082 0 gusting 2 10.0
2018-Jan-18 10:19 081 0 gusting 2 10.0
2018-Jan-18 10:14 081 3 gusting 6 9.4
2018-Jan-18 10:09 086 9.4
2018-Jan-18 10:04 078 1 gusting 5 8.9
2018-Jan-18 09:59 080 1 gusting 4 8.3
2018-Jan-18 09:54 080 2 gusting 6 8.3
2018-Jan-18 09:49 087 2 gusting 6 7.8
2018-Jan-18 09:44 084 2 gusting 5 7.8
2018-Jan-18 09:39 065 2 gusting 5 7.8
2018-Jan-18 09:34 056 1 gusting 2 7.8
2018-Jan-18 09:29 055 0 gusting 5 7.8
2018-Jan-18 09:24 053 7.8
2018-Jan-18 09:14 054 7.2
2018-Jan-18 09:04 064 0 gusting 4 6.7
2018-Jan-18 08:59 064 2 gusting 5 6.7
2018-Jan-18 08:54 038 0 gusting 4 6.7
2018-Jan-18 08:49 036 2 gusting 4 6.7
2018-Jan-18 08:44 034 7.2
2018-Jan-18 08:39 034 7.2
2018-Jan-18 08:34 034 7.2
2018-Jan-18 08:29 034 0 gusting 2 7.2
2018-Jan-18 08:19 034 7.2
2018-Jan-18 08:14 034 0 gusting 2 7.2
2018-Jan-18 08:09 035 0 gusting 4 7.8
2018-Jan-18 08:04 062 1 gusting 4 7.8
2018-Jan-18 07:59 058 0 gusting 5 7.8
2018-Jan-18 07:54 059 2 gusting 5 7.2
2018-Jan-18 07:49 063 0 gusting 2 7.2
2018-Jan-18 07:44 074 2 gusting 5 6.7
2018-Jan-18 07:39 082 1 gusting 4 6.7
2018-Jan-18 07:34 014 0 gusting 1 6.1
2018-Jan-18 07:29 014 5.0
2018-Jan-18 07:24 014 5.0
2018-Jan-18 07:19 014 6.1
2018-Jan-18 07:14 014 7.8
2018-Jan-18 07:09 014 0 gusting 4 8.3
2018-Jan-18 07:04 014 4 gusting 5 7.8
2018-Jan-18 06:59 014 7.8
2018-Jan-18 06:54 014 7.8
2018-Jan-18 06:49 014 7.8
2018-Jan-18 06:39 014 7.8
2018-Jan-18 06:34 014 7.8
2018-Jan-18 06:24 014 7.2
2018-Jan-18 06:19 014 6.7
2018-Jan-18 06:14 014 7.8
2018-Jan-18 06:04 014 1 gusting 2 8.3
2018-Jan-18 05:59 034 1 gusting 4 8.3
2018-Jan-18 05:54 036 7.8
2018-Jan-18 05:49 036 7.8
2018-Jan-18 05:44 036 7.2
2018-Jan-18 05:39 036 8.3
2018-Jan-18 05:34 036 0 gusting 2 8.3
2018-Jan-18 05:29 036 8.3
2018-Jan-18 05:24 036 1 gusting 5 8.3
2018-Jan-18 05:19 064 0 gusting 4 7.8
2018-Jan-18 05:14 041 8.3
2018-Jan-18 04:59 013 0 gusting 2 8.3
2018-Jan-18 04:49 013 7.8
2018-Jan-18 04:44 013 7.2
2018-Jan-18 04:39 013 6.7
2018-Jan-18 04:34 013 7.8
2018-Jan-18 04:29 013 8.3
2018-Jan-18 04:24 013 1 gusting 2 8.3
2018-Jan-18 04:19 013 0 gusting 2 7.8
2018-Jan-18 04:09 013 8.3
2018-Jan-18 03:59 013 7.8
2018-Jan-18 03:49 013 6.7
2018-Jan-18 03:44 013 6.7
2018-Jan-18 03:39 013 6.1
2018-Jan-18 03:34 013 7.2
2018-Jan-18 03:29 013 7.2
2018-Jan-18 03:24 013 7.2
2018-Jan-18 03:19 013 7.2
2018-Jan-18 03:14 013 7.2
2018-Jan-18 03:09 013 8.3
2018-Jan-18 03:04 013 1 gusting 4 7.8
2018-Jan-18 02:54 061 7.2
2018-Jan-18 02:49 061 7.2
2018-Jan-18 02:44 061 7.8
2018-Jan-18 02:39 061 0 gusting 2 7.8
2018-Jan-18 02:34 139 7.2
2018-Jan-18 02:29 139 7.2
2018-Jan-18 02:24 139 7.2
2018-Jan-18 02:14 139 7.2
2018-Jan-18 02:09 139 7.8
2018-Jan-18 02:04 044 7.8
2018-Jan-18 01:59 044 0 gusting 6 7.8
2018-Jan-18 01:54 346 2 gusting 6 7.2
2018-Jan-18 01:49 121 7.2
2018-Jan-18 01:44 121 7.8
2018-Jan-18 01:34 121 7.8
2018-Jan-18 01:19 121 8.3
2018-Jan-18 01:14 122 1 gusting 5 8.9
2018-Jan-18 01:09 353 5 gusting 6 8.9
2018-Jan-18 01:04 355 1 gusting 4 8.9
2018-Jan-18 00:59 351 8.9
2018-Jan-18 00:54 350 9.4
2018-Jan-18 00:49 9.4
2018-Jan-18 00:44 352 4 gusting 6 9.4
2018-Jan-18 00:39 003 2 gusting 4 9.4
2018-Jan-18 00:34 010 9.4
2018-Jan-18 00:29 022 8.9
2018-Jan-18 00:24 355 8.9
2018-Jan-18 00:19 307 8.9
2018-Jan-18 00:14 042 9.4
2018-Jan-18 00:09 037 1 gusting 4 8.9
2018-Jan-18 00:04 354 0 gusting 2 8.9
2018-Jan-17 23:59 290 8.3
2018-Jan-17 23:54 290 9.4
2018-Jan-17 23:49 340 9.4
2018-Jan-17 23:44 340 1 gusting 4 9.4
2018-Jan-17 23:39 307 1 gusting 4 9.4
2018-Jan-17 23:34 311 1 gusting 6 9.4
2018-Jan-17 23:29 299 1 gusting 4 9.4
2018-Jan-17 23:24 314 0 gusting 1 9.4
2018-Jan-17 23:19 314 0 gusting 5 9.4
2018-Jan-17 23:14 333 0 gusting 5 9.4
2018-Jan-17 23:09 349 1 gusting 6 10.0
2018-Jan-17 23:04 330 4 gusting 6 10.0
2018-Jan-17 22:59 333 4 gusting 6 10.0
2018-Jan-17 22:54 334 4 gusting 6 10.0
2018-Jan-17 22:39 328 10.0
2018-Jan-17 22:34 329 1 gusting 4 10.0
2018-Jan-17 22:29 328 3 gusting 5 9.4
2018-Jan-17 22:24 311 9.4
2018-Jan-17 22:19 311 9.4